Location: Doughton Park
(36.4224°N, 81.1835°W)
Time: 00:58:18
(UTC-05:00)

Amateur Radio Satellites - All Passes

Search period start: 18 January 2018 00:28
Search period end: 19 January 2018 00:28
Location: Doughton Park, 36.4224°N, 81.1835°W

Satellite Date Start Highest point End Downlink Frequencies (MHz)
Time Altitude Azimuth
POLYITAN 1 18 Jan 00:42:05 00:46:21 63° 285° (WNW) 00:50:35 437.675
O/OREOS (USA 219) 18 Jan 00:51:24 00:55:39 41° 105° (ESE) 00:59:54 437.305
UKube-1 18 Jan 00:51:49 00:54:19 15° 66° (ENE) 00:56:48 .
SPROUT 18 Jan 00:51:55 00:55:33 28° 263° (W) 00:59:12 437.525
Oscar 19 18 Jan 00:54:08 00:57:24 17° 93° (E) 01:00:40 437.125/150
DX 1 18 Jan 00:54:47 00:58:27 28° 70° (ENE) 01:02:09 434.975-435.025
NANOSAT C BR1 18 Jan 01:01:18 01:05:20 42° 287° (WNW) 01:09:21 145.865
QB50P2 18 Jan 01:12:03 01:15:35 25° 290° (WNW) 01:19:06 145.880/145.840
NO-84 18 Jan 01:14:19 01:16:52 26° 41° (NE) 01:19:31 435.350 FM
YUBILEINY 18 Jan 01:16:54 01:24:12 28° 289° (WNW) 01:31:32 435.215
BUGSAT 1 18 Jan 01:26:37 01:30:50 65° 101° (E) 01:35:03 437.445
50 SAT 18 Jan 01:31:17 01:34:19 69° 76° (ENE) 01:37:24 437.505
AO-91 18 Jan 01:38:54 01:43:14 58° 101° (E) 01:48:02 145.960
EO-79 18 Jan 01:45:38 01:47:34 13° 294° (WNW) 01:49:30 145.935-145.965
DUCHIFAT 1 18 Jan 01:48:20 01:50:52 16° 293° (WNW) 01:53:23 145.980
MOZHAYETS 4 18 Jan 01:50:03 01:53:16 19° 67° (ENE) 01:56:30
Gurwin Techsat 1B 18 Jan 01:50:11 01:55:18 46° 100° (E) 02:00:22 435.225
ITUPSAT 1 18 Jan 02:23:01 02:26:53 25° 68° (ENE) 02:30:46 437.325
UKube-1 18 Jan 02:25:53 02:29:57 41° 261° (W) 02:34:01 .
DX 1 18 Jan 02:31:14 02:34:35 22° 264° (W) 02:37:57 434.975-435.025
Oscar 19 18 Jan 02:31:58 02:36:58 50° 288° (WNW) 02:41:55 437.125/150
O/OREOS (USA 219) 18 Jan 02:32:17 02:35:13 17° 301° (WNW) 02:38:11 437.305
AO-7 18 Jan 02:40:36 02:46:48 22° 95° (E) 02:52:56 .
NO-84 18 Jan 02:51:47 02:53:53 17° 233° (SW) 02:56:04 435.350 FM
nSIGHT-1 18 Jan 02:59:53 03:00:27 10° 21° (NNE) 03:01:01 .
BEESAT 18 Jan 03:04:03 03:08:46 71° 75° (ENE) 03:13:32 436.000
AO-91 18 Jan 03:17:26 03:19:19 13° 292° (WNW) 03:21:17 145.960
CUBESAT XI-V 18 Jan 03:19:40 03:24:05 41° 72° (ENE) 03:28:29 437.345
MOZHAYETS 4 18 Jan 03:25:49 03:30:05 38° 262° (W) 03:34:25
ITAMSAT 1 18 Jan 03:31:03 03:35:28 27° 96° (E) 03:39:51 435.822/435.867
Gurwin Techsat 1B 18 Jan 03:31:04 03:34:51 20° 295° (WNW) 03:38:38 435.225
KKS-1 18 Jan 03:45:56 03:46:59 11° 63° (ENE) 03:48:03 437.445
ITUPSAT 1 18 Jan 04:00:23 04:04:32 30° 263° (W) 04:08:44 437.325
AO-7 18 Jan 04:31:47 04:40:07 71° 291° (WNW) 04:48:22 .
ISS 18 Jan 04:33:43 04:36:47 37° 36° (NE) 04:39:52 437.550
nSIGHT-1 18 Jan 04:34:03 04:37:12 55° 39° (NE) 04:40:20 .
FALCONSAT 3 18 Jan 04:51:09 04:53:57 21° 154° (SSE) 04:56:46 435.103
DOVE 4 18 Jan 04:56:07 05:00:20 51° 100° (E) 05:04:46 437.250
CUBESAT XI-V 18 Jan 04:58:31 05:01:34 17° 267° (W) 05:04:38 437.345
SO-50 18 Jan 05:08:45 05:11:10 14° 108° (ESE) 05:13:36 436.795
ITAMSAT 1 18 Jan 05:10:18 05:14:52 32° 291° (WNW) 05:19:25 435.822/435.867
KKS-1 18 Jan 05:18:35 05:22:57 64° 259° (W) 05:27:21 437.445
M-CUBED/EXP-1 PRIME 18 Jan 05:29:05 05:32:27 71° 288° (WNW) 05:35:41 437.505
STARS 18 Jan 05:43:55 05:48:16 90° 349° (NNW) 05:52:39 437.465
XW-2F 18 Jan 05:46:45 05:49:32 20° 95° (E) 05:52:19 145.980 - 146.000
KAITUO 1B 18 Jan 05:51:07 05:53:33 17° 94° (E) 05:55:58 145.475/437.950
XW-2D 18 Jan 05:53:09 05:56:25 27° 97° (E) 05:59:38 145.860 - 145.880
HO-68 18 Jan 06:05:33 06:10:12 18° 92° (E) 06:14:50 435.675
NUDT-PHONESAT 18 Jan 06:07:38 06:10:43 25° 96° (E) 06:13:48 437.300
XW-2B 18 Jan 06:10:20 06:13:57 44° 99° (E) 06:17:32 145.730 - 145.750
ISS 18 Jan 06:10:43 06:13:04 18° 231° (SW) 06:15:24 437.550
nSIGHT-1 18 Jan 06:11:58 06:12:59 11° 233° (SW) 06:14:00 .
CUTE-I 18 Jan 06:19:37 06:24:42 44° 99° (E) 06:29:46 437.470
AO-7 18 Jan 06:27:25 06:31:22 14° 310° (NW) 06:35:18 .
FALCONSAT 3 18 Jan 06:29:04 06:32:41 58° 168° (SSE) 06:36:17 435.103
LilacSat-2 18 Jan 06:33:54 06:37:41 74° 283° (WNW) 06:41:25 437.200
STRAND 1 18 Jan 06:35:27 06:40:10 40° 71° (ENE) 06:44:55 437.568
DOVE 4 18 Jan 06:35:42 06:37:38 13° 293° (WNW) 06:39:35 437.250
XW-2C 18 Jan 06:40:22 06:44:06 66° 284° (WNW) 06:47:48 145.795 - 145.815
SO-50 18 Jan 06:46:50 06:51:09 49° 304° (WNW) 06:55:33 436.795
FO-29 18 Jan 06:54:45 07:00:53 33° 69° (ENE) 07:06:25 435.910
CUBEBUG 2 18 Jan 07:15:19 07:19:55 46° 99° (E) 07:24:27 437.445
XW-2A 18 Jan 07:19:45 07:20:51 11° 93° (E) 07:21:56 145.665 - 145.685
XW-2F 18 Jan 07:20:38 07:23:31 22° 289° (WNW) 07:26:24 145.980 - 146.000
AAUSAT CUBESAT 2 18 Jan 07:22:51 07:25:49 19° 94° (E) 07:28:46 437.432
RS-15 18 Jan 07:22:59 07:33:02 31° 103° (ESE) 07:43:01 29.354- 29.394
KAITUO 1B 18 Jan 07:24:25 07:27:28 25° 289° (WNW) 07:30:31 145.475/437.950
UWE-3 18 Jan 07:27:42 07:31:58 34° 97° (E) 07:36:10 435.000/436.395/437.385
XW-2D 18 Jan 07:27:57 07:30:19 16° 291° (WNW) 07:32:41 145.860 - 145.880
SEEDS 18 Jan 07:30:25 07:34:33 63° 101° (E) 07:38:39 437.485
CUTE 1.7 + AOD 2 18 Jan 07:36:39 07:40:48 60° 284° (WNW) 07:44:55 437.475
NUDT-PHONESAT 18 Jan 07:41:57 07:44:20 17° 291° (WNW) 07:46:42 437.300
XW-2B 18 Jan 07:46:52 07:47:40 11° 294° (WNW) 07:48:27 145.730 - 145.750
HO-68 18 Jan 07:51:20 07:58:27 72° 288° (WNW) 08:05:34 435.675
ZACube-1 18 Jan 07:58:37 08:02:52 37° 97° (E) 08:07:02 437.345
CUTE-I 18 Jan 08:00:30 08:04:23 21° 294° (WNW) 08:08:17 437.470
AO-73 18 Jan 08:07:22 08:11:40 41° 98° (E) 08:15:52 145.935
FALCONSAT 3 18 Jan 08:08:00 08:11:40 76° 184° (S) 08:15:20 435.103
STRAND 1 18 Jan 08:15:45 08:19:28 20° 266° (W) 08:23:11 437.568
FO-29 18 Jan 08:39:07 08:45:46 40° 261° (W) 08:51:46 435.910
TIGRISAT 18 Jan 08:42:48 08:46:25 26° 69° (ENE) 08:50:05 435.000
Oscar 11 18 Jan 08:44:04 08:48:23 66° 101° (ESE) 08:52:39 .
XW-2A 18 Jan 08:50:38 08:53:36 29° 287° (WNW) 08:56:32 145.665 - 145.685
CUBEBUG 2 18 Jan 08:53:05 08:56:05 17° 293° (WNW) 08:59:05 437.445
UNISAT 6 18 Jan 08:56:39 09:00:45 40° 72° (ENE) 09:04:56 437.425
AAUSAT CUBESAT 2 18 Jan 08:57:44 09:01:14 28° 288° (WNW) 09:04:43 437.432
UWE-3 18 Jan 09:04:38 09:08:08 21° 292° (WNW) 09:11:36 435.000/436.395/437.385
PCSat 18 Jan 09:21:24 09:24:36 16° 104° (ESE) 09:27:48 145.827
RS-15 18 Jan 09:32:13 09:44:31 72° 302° (WNW) 09:56:44 29.354- 29.394
YUBILEINY 18 Jan 09:32:45 09:39:29 24° 69° (ENE) 09:46:09 435.215
ZACube-1 18 Jan 09:35:40 09:38:49 19° 293° (WNW) 09:41:55 437.345
HO-68 18 Jan 09:42:25 09:44:55 12° 306° (NW) 09:47:27 435.675
AO-73 18 Jan 09:44:35 09:47:30 17° 293° (WNW) 09:50:23 145.935
Max Valier Satellite 18 Jan 09:46:50 09:50:17 36° 98° (E) 09:53:41 145.860
FALCONSAT 3 18 Jan 09:47:08 09:50:34 38° 199° (SSW) 09:54:00 435.103
BEESAT 3 18 Jan 09:49:23 09:52:46 27° 113° (ESE) 09:56:11 437.485
DELFI C3 18 Jan 10:03:03 10:06:59 81° 282° (WNW) 10:10:54 145.870
PRISM 18 Jan 10:05:38 10:09:35 52° 74° (ENE) 10:13:32 437.425
EO-88 18 Jan 10:12:53 10:16:27 51° 100° (E) 10:19:58 145.990 - 145.960
TIGRISAT 18 Jan 10:19:25 10:22:59 25° 265° (W) 10:26:39 435.000
QB50P2 18 Jan 10:27:48 10:29:49 13° 66° (ENE) 10:31:50 145.880/145.840
BEESAT 2 18 Jan 10:30:23 10:33:16 19° 110° (ESE) 10:36:10 435.950
AIST 2D 18 Jan 10:34:58 10:38:20 44° 75° (ENE) 10:41:43 435.315
UNISAT 6 18 Jan 10:35:01 10:37:37 15° 268° (W) 10:40:16 437.425
EO-79 18 Jan 10:58:09 11:01:39 26° 70° (ENE) 11:05:10 145.935-145.965
DUCHIFAT 1 18 Jan 11:01:12 11:04:21 21° 69° (ENE) 11:07:31 145.980
PCSat 18 Jan 11:02:06 11:07:26 59° 300° (WNW) 11:12:48 145.827
O/OREOS (USA 219) 18 Jan 11:03:40 11:08:02 52° 67° (ENE) 11:12:24 437.305
Max Valier Satellite 18 Jan 11:22:10 11:23:42 12° 293° (WNW) 11:25:15 145.860
BEESAT 3 18 Jan 11:27:04 11:30:15 22° 308° (NW) 11:33:27 437.485
FALCONSAT 3 18 Jan 11:28:05 11:29:06 11° 211° (SSW) 11:30:06 435.103
YUBILEINY 18 Jan 11:28:19 11:36:54 66° 268° (W) 11:45:27 435.215
POLYITAN 1 18 Jan 11:31:30 11:35:40 66° 76° (ENE) 11:39:54 437.675
LO-87 18 Jan 11:41:43 11:45:22 85° 102° (ESE) 11:48:59 145.935 - 145.965
NANOSAT C BR1 18 Jan 11:50:01 11:54:12 85° 255° (WSW) 11:58:27 145.865
RS-15 18 Jan 11:50:18 11:59:38 24° 329° (NNW) 12:08:51 29.354- 29.394
AO-85 18 Jan 11:54:18 11:57:10 20° 110° (ESE) 12:00:08 145.980
QB50P2 18 Jan 12:01:05 12:05:09 46° 261° (W) 12:09:15 145.880/145.840
ESTCUBE 1 18 Jan 12:06:25 12:10:54 74° 283° (WNW) 12:15:21 437.505/2401.250
BEESAT 2 18 Jan 12:07:08 12:10:44 31° 306° (NW) 12:14:22 435.950
Oscar 19 18 Jan 12:08:27 12:12:12 20° 66° (ENE) 12:15:57 437.125/150
BUGSAT 1 18 Jan 12:13:51 12:17:22 30° 71° (ENE) 12:20:59 437.445
VELOX 1 18 Jan 12:20:13 12:23:07 17° 94° (E) 12:25:59 145.980
EO-79 18 Jan 12:34:02 12:37:19 22° 265° (W) 12:40:38 145.935-145.965
AO-91 18 Jan 12:35:09 12:37:59 25° 72° (ENE) 12:40:51 145.960
DUCHIFAT 1 18 Jan 12:36:14 12:39:48 27° 264° (W) 12:43:25 145.980
JUGNU 18 Jan 12:37:24 12:40:28 15° 176° (S) 12:43:33 437.505
SPROUT 18 Jan 12:39:01 12:43:15 56° 100° (E) 12:47:28 437.525
O/OREOS (USA 219) 18 Jan 12:45:15 12:46:54 12° 262° (W) 12:48:34 437.305
Gurwin Techsat 1B 18 Jan 13:08:38 13:13:49 58° 73° (ENE) 13:19:02 435.225
AO-85 18 Jan 13:33:50 13:37:18 29° 307° (NW) 13:41:00 145.980
AO-7 18 Jan 13:37:06 13:43:44 27° 58° (ENE) 13:50:22 .
Oscar 19 18 Jan 13:46:13 13:51:09 44° 261° (W) 13:56:07 437.125/150
BUGSAT 1 18 Jan 13:50:00 13:52:45 18° 266° (W) 13:55:32 437.445
VELOX 1 18 Jan 13:55:36 13:59:37 36° 288° (WNW) 14:03:39 145.980
RS-15 18 Jan 14:12:25 14:18:42 15° 6° (N) 14:24:52 29.354- 29.394
AO-91 18 Jan 14:13:07 14:14:32 12° 266° (W) 14:15:58 145.960
UKube-1 18 Jan 14:15:04 14:19:03 36° 99° (E) 14:23:00 .
SPROUT 18 Jan 14:17:09 14:18:36 12° 295° (WNW) 14:20:04 437.525
50 SAT 18 Jan 14:19:31 14:22:38 77° 101° (E) 14:25:44 437.505
DX 1 18 Jan 14:20:29 14:24:49 75° 102° (ESE) 14:29:09 434.975-435.025
JUGNU 18 Jan 14:25:43 14:28:40 14° 186° (S) 14:31:37 437.505
SRMSAT 18 Jan 14:41:06 14:43:38 13° 170° (S) 14:46:10 437.500
ITAMSAT 1 18 Jan 14:46:32 14:51:06 33° 69° (ENE) 14:55:42 435.822/435.867
Gurwin Techsat 1B 18 Jan 14:51:07 14:54:05 15° 268° (W) 14:57:04 435.225
BEESAT 18 Jan 15:07:21 15:11:00 21° 95° (E) 15:14:39 436.000
SO-50 18 Jan 15:19:57 15:24:40 70° 59° (ENE) 15:29:26 436.795
CUBESAT XI-V 18 Jan 15:20:42 15:22:27 12° 91° (E) 15:24:12 437.345
MOZHAYETS 4 18 Jan 15:22:50 15:27:25 59° 101° (E) 15:31:57
AO-7 18 Jan 15:27:34 15:35:49 65° 255° (WSW) 15:44:10 .
UKube-1 18 Jan 15:51:55 15:54:45 17° 293° (WNW) 15:57:34 .
DOVE 4 18 Jan 15:59:20 16:03:22 37° 73° (ENE) 16:07:15 437.250
ITUPSAT 1 18 Jan 16:02:27 16:07:17 84° 103° (ESE) 16:12:06 437.325
M-CUBED/EXP-1 PRIME 18 Jan 16:10:50 16:15:19 87° 72° (ENE) 16:19:34 437.505
ITAMSAT 1 18 Jan 16:26:18 16:30:32 26° 264° (W) 16:34:49 435.822/435.867
RS-15 18 Jan 16:26:22 16:36:40 33° 40° (NE) 16:46:27 29.354- 29.394
SRMSAT 18 Jan 16:28:33 16:32:00 16° 181° (S) 16:35:28 437.500
XW-2D 18 Jan 16:34:15 16:34:53 10° 66° (ENE) 16:35:31 145.860 - 145.880
HO-68 18 Jan 16:35:33 16:37:14 11° 53° (NE) 16:38:54 435.675
BEESAT 18 Jan 16:44:28 16:48:47 34° 290° (WNW) 16:53:06 436.000
XW-2B 18 Jan 16:49:52 16:52:14 16° 69° (ENE) 16:54:37 145.730 - 145.750
CUBESAT XI-V 18 Jan 16:55:36 17:00:08 56° 286° (WNW) 17:04:36 437.345
MOZHAYETS 4 18 Jan 17:02:01 17:04:00 13° 296° (WNW) 17:05:59
SO-50 18 Jan 17:03:04 17:04:32 11° 253° (WSW) 17:06:00 436.795
KKS-1 18 Jan 17:12:11 17:16:01 28° 97° (E) 17:19:50 437.445
LilacSat-2 18 Jan 17:12:57 17:16:28 34° 73° (ENE) 17:20:00 437.200
XW-2C 18 Jan 17:18:40 17:22:13 37° 73° (ENE) 17:25:46 145.795 - 145.815
STARS 18 Jan 17:36:26 17:39:37 19° 95° (E) 17:42:48 437.465
DOVE 4 18 Jan 17:38:31 17:41:08 16° 266° (W) 17:43:43 437.250
CUTE-I 18 Jan 17:38:49 17:44:00 57° 73° (ENE) 17:49:12 437.470
XW-2F 18 Jan 17:57:25 18:01:13 71° 259° (WSW) 18:05:02 145.980 - 146.000
KAITUO 1B 18 Jan 18:00:29 18:04:15 87° 262° (W) 18:08:02 145.475/437.950
NO-84 18 Jan 18:03:23 18:06:26 57° 316° (NW) 18:09:19 435.350 FM
XW-2D 18 Jan 18:04:51 18:08:34 48° 261° (W) 18:12:18 145.860 - 145.880
CUBEBUG 2 18 Jan 18:11:09 18:14:45 26° 70° (ENE) 18:18:28 437.445
HO-68 18 Jan 18:16:32 18:23:36 66° 71° (ENE) 18:30:41 435.675
NUDT-PHONESAT 18 Jan 18:16:34 18:20:14 55° 260° (W) 18:23:55 437.300
SRMSAT 18 Jan 18:18:05 18:20:22 12° 191° (S) 18:22:39 437.500
SEEDS 18 Jan 18:19:25 18:23:07 30° 72° (ENE) 18:26:50 437.485
UWE-3 18 Jan 18:22:38 18:25:49 20° 68° (ENE) 18:29:04 435.000/436.395/437.385
XW-2B 18 Jan 18:22:43 18:26:07 30° 263° (W) 18:29:32 145.730 - 145.750
CUTE 1.7 + AOD 2 18 Jan 18:26:04 18:30:17 65° 76° (ENE) 18:34:32 437.475
RS-15 18 Jan 18:38:40 18:50:15 76° 245° (WSW) 19:01:13 29.354- 29.394
LilacSat-2 18 Jan 18:48:48 18:50:48 14° 267° (W) 18:52:49 437.200
KKS-1 18 Jan 18:48:53 18:52:24 23° 291° (WNW) 18:55:55 437.445
STRAND 1 18 Jan 18:49:24 18:52:42 17° 93° (E) 18:56:00 437.568
ZACube-1 18 Jan 18:52:08 18:55:29 22° 69° (ENE) 18:58:55 437.345
XW-2C 18 Jan 18:54:49 18:56:29 12° 267° (W) 18:58:09 145.795 - 145.815
AO-73 18 Jan 19:00:25 19:03:54 23° 69° (ENE) 19:07:28 145.935
STARS 18 Jan 19:12:02 19:15:58 32° 289° (WNW) 19:19:54 437.465
XW-2A 18 Jan 19:18:12 19:21:29 48° 76° (ENE) 19:24:49 145.665 - 145.685
CUTE-I 18 Jan 19:21:18 19:24:21 15° 268° (W) 19:27:25 437.470
Oscar 11 18 Jan 19:36:09 19:40:06 35° 72° (ENE) 19:44:05 .
AAUSAT CUBESAT 2 18 Jan 19:44:08 19:48:13 62° 259° (W) 19:52:20 437.432
BEESAT 3 18 Jan 19:44:48 19:48:43 87° 235° (SW) 19:52:32 437.485
CUBEBUG 2 18 Jan 19:47:51 19:51:18 23° 266° (W) 19:54:50 437.445
FO-29 18 Jan 19:51:34 19:55:58 27° 96° (E) 20:00:22 435.910
PCSat 18 Jan 19:52:22 19:57:45 63° 61° (ENE) 20:03:07 145.827
SEEDS 18 Jan 19:55:48 19:58:47 19° 266° (W) 20:01:48 437.485
UWE-3 18 Jan 19:58:05 20:01:59 32° 264° (W) 20:06:02 435.000/436.395/437.385
HO-68 18 Jan 20:06:46 20:11:46 20° 267° (W) 20:16:48 435.675
Max Valier Satellite 18 Jan 20:24:41 20:26:10 12° 67° (ENE) 20:27:40 145.860
BEESAT 2 18 Jan 20:26:19 20:30:18 65° 59° (ENE) 20:34:12 435.950
AO-85 18 Jan 20:26:54 20:29:44 15° 46° (NE) 20:32:39 145.980
STRAND 1 18 Jan 20:27:10 20:32:06 49° 288° (WNW) 20:37:02 437.568
ZACube-1 18 Jan 20:27:41 20:31:32 30° 264° (W) 20:35:30 437.345
AO-73 18 Jan 20:36:11 20:39:57 28° 264° (W) 20:43:49 145.935
DELFI C3 18 Jan 20:45:27 20:49:03 36° 73° (ENE) 20:52:39 145.870
EO-88 18 Jan 20:48:50 20:51:02 15° 69° (ENE) 20:53:13 145.990 - 145.960
UNISAT 6 18 Jan 20:52:54 20:54:20 11° 91° (E) 20:55:45 437.425
RS-15 18 Jan 20:55:28 21:00:25 14° 264° (W) 21:05:19 29.354- 29.394
nSIGHT-1 18 Jan 21:08:43 21:11:50 66° 137° (SE) 21:14:59 .
ISS 18 Jan 21:11:38 21:14:45 43° 134° (SE) 21:17:52 437.550
Oscar 11 18 Jan 21:13:26 21:16:18 17° 267° (W) 21:19:11 .
FO-29 18 Jan 21:36:37 21:41:02 29° 292° (WNW) 21:45:29 435.910
PCSat 18 Jan 21:37:36 21:40:32 15° 256° (WSW) 21:43:28 145.827
Max Valier Satellite 18 Jan 21:56:05 21:59:35 38° 262° (W) 22:03:06 145.860
AO-85 18 Jan 22:05:38 22:10:41 80° 242° (WSW) 22:15:58 145.980
TIGRISAT 18 Jan 22:12:03 22:16:46 82° 102° (ESE) 22:21:28 435.000
LO-87 18 Jan 22:15:28 22:18:11 21° 71° (ENE) 22:20:55 145.935 - 145.965
EO-88 18 Jan 22:21:13 22:24:23 28° 263° (W) 22:27:34 145.990 - 145.960
DELFI C3 18 Jan 22:21:57 22:23:53 13° 267° (W) 22:25:49 145.870
UNISAT 6 18 Jan 22:26:43 22:31:22 63° 285° (WNW) 22:36:00 437.425
YUBILEINY 18 Jan 22:30:36 22:37:55 30° 84° (E) 22:45:12 435.215
nSIGHT-1 18 Jan 22:46:21 22:48:18 15° 333° (NNW) 22:50:14 .
ISS 18 Jan 22:48:54 22:51:22 20° 331° (NNW) 22:53:50 437.550
ESTCUBE 1 18 Jan 23:02:51 23:07:22 72° 75° (ENE) 23:11:53 437.505/2401.250
VELOX 1 18 Jan 23:16:24 23:17:59 12° 64° (ENE) 23:19:34 145.980
POLYITAN 1 18 Jan 23:20:25 23:22:27 13° 92° (E) 23:24:27 437.675
PRISM 18 Jan 23:24:03 23:28:05 64° 285° (WNW) 23:32:07 437.425
SPROUT 18 Jan 23:29:46 23:33:26 30° 71° (ENE) 23:37:09 437.525
AIST 2D 18 Jan 23:34:49 23:38:18 82° 106° (ESE) 23:41:44 435.315
NANOSAT C BR1 18 Jan 23:37:33 23:40:32 18° 94° (E) 23:43:30 145.865
QB50P2 18 Jan 23:48:19 23:52:10 32° 97° (E) 23:56:00 145.880/145.840
LO-87 18 Jan 23:48:56 23:51:28 18° 265° (W) 23:54:02 145.935 - 145.965
